Location: Most
(50.5133°N, 13.6207°E)
Time: 00:35:40
(UTC+02:00)

ISS - Pass Details

Date: 20 September 2021
Orbit: 417 x 423 km, 51.6° (Epoch: 22 October)

Event Time Altitude Azimuth Distance (km) Brightness Sun altitude
Rises 20:48:21 0° 248° (WSW) 2,358 0.8 -16.4°
Reaches altitude 10° 20:50:27 10° 246° (WSW) 1,497 -0.4 -16.7°
Maximum altitude 20:53:48 74° 161° (SSE) 440 -3.9 -17.2°
Enters shadow 20:54:32 50° 92° (E) 542 -3.6 -17.3°
